[[{"header":{"parameterUnit":"m.s-1","parameterCategory":2,"la1":30.2991,"la2":30.254,"lo1":-89.0895,"lo2":-89.0444,"dy":0.0017,"dx":0.0017,"nx":28,"ny":28,"refTime":"2025-08-03T09:00:00:Z","depth":"0","parameterNumber":2,"parameterNumberName":"U-component_of_CURRENTS"},"data":[0,0,0,0,0,0,0,0,0,0,0,0,0,0,0,0,0,0,0,0,0,0,0,0,0,0,0,0,0,0,0,0,0,0,0,0,0,0,0,0,0,0,0,0,0,0,0,0,0,0,0,0,0,0,0,0,0,0,0.2101,0.2102,0,0.2136,0.2136,0.2136,0.2127,0.2127,0.2127,0.2128,0.2068,0.2067,0.2065,0,0,0,0,0,0,0,0,0,0,0,0,0,0.2022,0.2022,0.21,0.2102,0.2103,0.2136,0.2136,0.2135,0.2127,0.2127,0.2128,0.2128,0.2069,0.2067,0.2065,0,0,0,0,0,0,0,0,0,0,0,0,0,0.2049,0.2023,0.21,0.2109,0.211,0.2136,0.2136,0.2135,0.2127,0.2127,0.2128,0.2128,0.2069,0.2067,0.2065,0.2048,0,0,0.2057,0.2056,0,0,0,0,0,0,0,0,0.2047,0.2051,0.2106,0.2108,0.211,0.2134,0.2087,0.2104,0.2127,0.2112,0.2128,0.2128,0.2087,0.2083,0.2079,0.2045,0.2043,0.2057,0.2056,0.2054,0.2054,0,0,0,0,0,0,0,0.2045,0.2049,0.2106,0.2108,0.211,0.211,0.2113,0.209,0.2091,0.2114,0.2115,0.2132,0.2086,0.2082,0.2078,0.2042,0.2057,0.2055,0.2053,0.2052,0.2007,0.2007,0,0,0,0,0,0,0.2057,0.2047,0.2105,0.2108,0.2087,0.2112,0.2115,0.212,0.2093,0.2092,0.2132,0.2132,0.2086,0.2081,0.2076,0.2078,0.2055,0.2052,0.2051,0.2006,0.2007,0.2007,0,0,0,0,0,0,0.2055,0.2061,0.2104,0.2086,0.2092,0.2114,0.2119,0.2121,0.2121,0.2109,0.2105,0.2133,0.2086,0.2079,0.2056,0.2075,0.2051,0.2049,0.2006,0.2006,0.2007,0.2068,0,0,0,0,0,0,0.2052,0.206,0.2057,0.2086,0.2094,0.2116,0.212,0.2122,0.2135,0.2135,0.2108,0.2103,0.2085,0.206,0.2053,0.2071,0.2047,0.2006,0.2006,0.2007,0.2066,0.2071,0.2075,0,0,0,0,0,0.2049,0.205,0.2056,0.2064,0.2092,0.2117,0.2119,0.213,0.2135,0.213,0.2116,0.2104,0.2059,0.2057,0.205,0.2068,0.2005,0.2006,0.2007,0.2064,0.207,0.2075,0,0,0,0,0,0,0.2005,0.2051,0.2058,0.2069,0.2091,0.2118,0.212,0.2133,0.2119,0.2114,0.21,0.2092,0.2083,0.2061,0.206,0.2055,0.2033,0.2032,0.2079,0.2084,0.2088,0.2175,0.2045,0,0,0,0,0,0.1999,0.201,0.2052,0.2055,0.2071,0.2095,0.2105,0.2115,0.2118,0.2113,0.21,0.2084,0.2079,0.2069,0.2051,0.2041,0.2146,0.2049,0.2053,0.2057,0.2122,0.2299,0.2328,0.2009,0.2009,0.2009,0,0,0.1983,0.2009,0.2014,0.2047,0.2063,0.2077,0.2098,0.2115,0.2122,0.2107,0.2096,0.2094,0.2079,0.2075,0.2069,0.2058,0.22,0.2058,0.2062,0.2126,0.2303,0.2335,0.2364,0.2009,0.2009,0.2009,0,0,0.1959,0.1981,0.1984,0.2006,0.2042,0.206,0.2069,0.2097,0.2105,0.2095,0.2103,0.2136,0.2078,0.2118,0.212,0.214,0.2218,0.2103,0.2199,0.2367,0.2398,0.2426,0.2604,0.2647,0.2106,0.2106,0.2107,0,0.1936,0.195,0.1986,0.1998,0.2022,0.2054,0.2067,0.2078,0.209,0.2131,0.2088,0.2153,0.2119,0.221,0.2207,0.2159,0.2273,0.2178,0.2383,0.2412,0.244,0.2616,0.2663,0.2109,0.2109,0.2109,0.2109,0,0.1924,0.1933,0.194,0.1968,0.1992,0.2008,0.2048,0.207,0.2083,0.2123,0.2208,0.2211,0.2285,0.2252,0.2224,0.24,0.2424,0.2372,0.2386,0.2478,0.2654,0.2703,0.2114,0.2113,0.2112,0.2111,0,0,0.189,0.1923,0.1926,0.1952,0.1985,0.2019,0.204,0.2113,0.2204,0.221,0.2357,0.2347,0.2428,0.2443,0.2453,0.2577,0.2835,0.256,0.2567,0.277,0.325,0.323,0.3281,0.2828,0.2836,0.2843,0.3298,0,0.1872,0.1889,0.1912,0.1943,0.197,0.2022,0.207,0.2144,0.2213,0.2356,0.2438,0.256,0.2477,0.2565,0.2676,0.2793,0.2966,0.272,0.3105,0.3118,0.3117,0.3337,0.322,0.3613,0.3346,0.3354,0.336,0,0.1866,0.1885,0.1902,0.199,0.2014,0.2038,0.2192,0.2244,0.2435,0.2518,0.2681,0.2768,0.2971,0.2888,0.3213,0.3063,0.3194,0.3276,0.3295,0.3306,0.319,0.3475,0.3712,0.3539,0.3435,0.3429,0.3423,0,0.1863,0.1896,0.1916,0.1935,0.2023,0.207,0.2136,0.2298,0.2422,0.2677,0.2824,0.3049,0.3197,0.3397,0.3526,0.3419,0.3898,0.3765,0.3899,0.3898,0.3895,0.3879,0.4047,0.4082,0.4081,0.408,0.4078,0,0.1861,0.1895,0.1921,0.1944,0.2045,0.2097,0.2261,0.2374,0.2601,0.2795,0.2939,0.3148,0.3334,0.3581,0.3693,0.397,0.4052,0.4025,0.4053,0.3905,0.3886,0.3805,0.3679,0.4097,0.4093,0.409,0.4087,0,0.1902,0.1882,0.1945,0.2016,0.2047,0.2139,0.2328,0.249,0.2661,0.2935,0.3041,0.3306,0.3617,0.3821,0.4163,0.4186,0.4337,0.4524,0.434,0.4337,0.4224,0.4105,0.425,0.4136,0.4782,0.4785,0.4787,0,0.195,0.1966,0.202,0.209,0.2129,0.2256,0.2382,0.253,0.2699,0.3016,0.3172,0.352,0.3752,0.4246,0.4421,0.4739,0.4512,0.4774,0.4533,0.4308,0.4197,0.395,0.3821,0.4568,0.4569,0.4569,0.4569,0,0.2114,0.2103,0.2164,0.2264,0.2362,0.2447,0.26,0.2705,0.2898,0.3085,0.3335,0.3531,0.3987,0.4231,0.4615,0.4761,0.4501,0.4787,0.4629,0.4152,0.3831,0.3699,0.4167,0.4572,0.4572,0.4571,0.4571,0.4571,0.2317,0.2362,0.243,0.2498,0.2575,0.2607,0.2648,0.2793,0.2951,0.316,0.3368,0.3627,0.3972,0.4477,0.4605,0.4675,0.457,0.4552,0.4474,0.4281,0.4015,0.4494,0.4842,0.4844,0.4845,0.4846,0.4847,0,0.2608,0.2593,0.2692,0.2705,0.2724,0.2723,0.2796,0.2804,0.2878,0.3135,0.3312,0.3709,0.3971,0.4243,0.4432,0.4337,0.4147,0.4237,0.3848,0.3772,0.4316,0.414,0.4258,0.4258,0.4258,0.4258,0.4258,0.4259,0.2794,0.2881,0.2815,0.2822,0.2797,0.2756,0.2726,0.2732,0.2856,0.3051,0.3274,0.3531,0.381,0.4032,0.4003,0.3953,0.361,0.3537,0.3463,0.379,0.3809,0.3827,0.3632,0.3641,0.3641,0.2784,0.2777,0.2772]},{"header":{"parameterUnit":"m.s-1","parameterCategory":2,"la1":30.2991,"la2":30.254,"lo1":-89.0895,"lo2":-89.0444,"dy":0.0017,"dx":0.0017,"nx":28,"ny":28,"refTime":"2025-08-03T09:00:00:Z","depth":"0","parameterNumber":3,"parameterNumberName":"V-component_of_CURRENTS"},"data":[0,0,0,0,0,0,0,0,0,0,0,0,0,0,0,0,0,0,0,0,0,0,0,0,0,0,0,0,0,0,0,0,0,0,0,0,0,0,0,0,0,0,0,0,0,0,0,0,0,0,0,0,0,0,0,0,0,0,-0.0706,-0.0707,0,-0.0759,-0.0759,-0.076,-0.0774,-0.0774,-0.0774,-0.0773,-0.0809,-0.081,-0.0811,0,0,0,0,0,0,0,0,0,0,0,0,0,-0.0607,-0.0609,-0.0706,-0.0707,-0.0707,-0.0759,-0.0759,-0.076,-0.0774,-0.0774,-0.0773,-0.0773,-0.0809,-0.081,-0.0812,0,0,0,0,0,0,0,0,0,0,0,0,0,-0.0653,-0.061,-0.0706,-0.0722,-0.0724,-0.0759,-0.0759,-0.076,-0.0774,-0.0774,-0.0773,-0.0773,-0.0808,-0.081,-0.0812,-0.0827,0,0,-0.0817,-0.0818,0,0,0,0,0,0,0,0,-0.065,-0.0656,-0.0719,-0.0721,-0.0723,-0.0761,-0.0738,-0.0782,-0.0774,-0.0753,-0.0773,-0.0773,-0.0793,-0.0796,-0.0804,-0.0829,-0.083,-0.0817,-0.0818,-0.0819,-0.0819,0,0,0,0,0,0,0,-0.0647,-0.0654,-0.0725,-0.072,-0.0722,-0.0723,-0.0729,-0.0746,-0.0772,-0.0755,-0.0757,-0.0765,-0.0794,-0.0803,-0.0805,-0.0831,-0.0817,-0.0818,-0.0819,-0.082,-0.0794,-0.0793,0,0,0,0,0,0,-0.0645,-0.0651,-0.0723,-0.0727,-0.0687,-0.0725,-0.0732,-0.0748,-0.0772,-0.0777,-0.0765,-0.0766,-0.08,-0.0803,-0.0806,-0.0735,-0.0819,-0.082,-0.0821,-0.0796,-0.0794,-0.0792,0,0,0,0,0,0,-0.0643,-0.0651,-0.0721,-0.0691,-0.07,-0.0728,-0.0745,-0.0749,-0.0756,-0.0781,-0.0784,-0.0768,-0.08,-0.0804,-0.0797,-0.074,-0.0821,-0.0823,-0.0798,-0.0795,-0.0793,-0.0651,0,0,0,0,0,0,-0.064,-0.065,-0.0659,-0.0691,-0.0702,-0.0731,-0.0745,-0.075,-0.0763,-0.0763,-0.0784,-0.0788,-0.08,-0.0794,-0.0798,-0.0744,-0.0824,-0.08,-0.0797,-0.0794,-0.0657,-0.0644,-0.0632,0,0,0,0,0,-0.0636,-0.0645,-0.066,-0.0668,-0.0714,-0.0731,-0.0735,-0.0753,-0.0763,-0.0759,-0.0762,-0.0787,-0.0777,-0.0794,-0.08,-0.0744,-0.0802,-0.0798,-0.0794,-0.0663,-0.0646,-0.0632,0,0,0,0,0,0,-0.0604,-0.0649,-0.0665,-0.0687,-0.0704,-0.0733,-0.0737,-0.0752,-0.0755,-0.0753,-0.0774,-0.0777,-0.0743,-0.0775,-0.0794,-0.0729,-0.079,-0.0787,-0.0689,-0.0673,-0.0661,-0.0586,-0.0825,0,0,0,0,0,-0.0604,-0.0623,-0.0659,-0.0673,-0.0683,-0.0711,-0.0721,-0.0732,-0.0742,-0.0744,-0.0753,-0.0755,-0.0734,-0.073,-0.073,-0.0707,-0.0696,-0.0674,-0.0661,-0.065,-0.0594,-0.0546,-0.0522,-0.078,-0.078,-0.078,0,0,-0.0598,-0.0622,-0.0634,-0.0668,-0.0684,-0.0671,-0.0715,-0.0725,-0.0689,-0.0748,-0.0703,-0.0715,-0.0719,-0.0674,-0.0663,-0.0692,-0.0574,-0.0645,-0.0635,-0.0584,-0.0539,-0.0513,-0.0491,-0.0777,-0.0777,-0.0778,0,0,-0.0579,-0.0613,-0.0617,-0.0623,-0.0646,-0.065,-0.065,-0.0673,-0.0657,-0.0634,-0.0641,-0.0603,-0.062,-0.057,-0.0556,-0.0476,-0.0508,-0.0505,-0.0373,-0.0328,-0.0305,-0.0285,-0.0243,-0.022,-0.0497,-0.0496,-0.0496,0,-0.0565,-0.0569,-0.0617,-0.0608,-0.0585,-0.0632,-0.0595,-0.059,-0.0598,-0.0539,-0.0601,-0.0508,-0.0544,-0.0405,-0.0391,-0.0436,-0.0433,-0.043,-0.0306,-0.0286,-0.0268,-0.023,-0.0206,-0.0489,-0.049,-0.0491,-0.0491,0,-0.0545,-0.0534,-0.0531,-0.0523,-0.0507,-0.0487,-0.0478,-0.0444,-0.0438,-0.041,-0.0295,-0.0318,-0.0238,-0.0265,-0.0313,-0.018,-0.0227,-0.0296,-0.0337,-0.0232,-0.0201,-0.0178,-0.0478,-0.0481,-0.0483,-0.0485,0,0,-0.0524,-0.0517,-0.0508,-0.0456,-0.0449,-0.0414,-0.0342,-0.025,-0.0129,-0.0147,0.003,0.0027,0.0037,0.0056,0.002,0.0036,0.013,-0.0081,-0.0082,-0.002,0.0228,0.0181,0.0199,0.0065,0.007,0.0073,0.0197,0,-0.0476,-0.0425,-0.0425,-0.0317,-0.0272,-0.0244,-0.0141,-0.0059,0.0008,0.0158,0.0184,0.0308,0.0155,0.0219,0.0216,0.0154,0.0195,0.0103,0.0104,0.0106,0.0066,0.0227,0.022,0.033,0.0219,0.0222,0.0225,0,-0.0434,-0.0394,-0.0302,-0.0154,-0.0124,-0.0054,0.0161,0.0247,0.0425,0.0495,0.0616,0.063,0.071,0.0547,0.0541,0.0478,0.0387,0.0314,0.0316,0.0252,0.0102,0.0206,0.0373,0.0098,0.0258,0.0255,0.0253,0,-0.036,-0.0275,-0.018,-0.0147,-0.0018,0.0084,0.0182,0.0359,0.0527,0.0734,0.0886,0.095,0.1017,0.0924,0.0742,0.0652,0.0714,0.0575,0.0477,0.0471,0.0465,0.0451,0.0393,0.0623,0.0623,0.0622,0.0622,0,-0.0283,-0.0184,-0.0134,-0.0074,0.0129,0.0182,0.045,0.0565,0.081,0.1061,0.1074,0.1271,0.1101,0.1098,0.0899,0.0774,0.0846,0.0575,0.0531,0.0509,0.0498,0.0252,0.0096,0.0627,0.0626,0.0625,0.0624,0,-0.0169,-0.0172,-0.0027,0.0104,0.0164,0.0324,0.0612,0.0841,0.1004,0.1339,0.1428,0.1538,0.1517,0.1355,0.1214,0.0995,0.0743,0.0808,0.0792,0.0744,0.0351,0.0204,0.0201,0.0106,0.0744,0.0744,0.0744,0,-0.0074,-0.0024,0.0114,0.0229,0.0305,0.053,0.0735,0.0937,0.1192,0.1504,0.1704,0.1777,0.1862,0.1656,0.1332,0.1084,0.081,0.0867,0.0698,0.0401,0.0205,0.0113,0.0026,0.0744,0.0744,0.0744,0.0744,0,0.0135,0.0143,0.0257,0.0457,0.065,0.089,0.1166,0.137,0.1639,0.1852,0.2104,0.2172,0.2022,0.1775,0.1425,0.1196,0.0683,0.0856,0.0576,0.0259,0.0139,0.0,0.0568,0.0744,0.0744,0.0744,0.0744,0.0744,0.0332,0.0439,0.0554,0.0754,0.0963,0.1233,0.1418,0.1689,0.1996,0.2278,0.234,0.2435,0.2102,0.1634,0.1307,0.0674,0.0692,0.0424,0.0294,0.0247,0.0093,0.0662,0.0748,0.0748,0.0748,0.0748,0.0748,0,0.0584,0.0671,0.087,0.1082,0.1311,0.1375,0.1718,0.1867,0.2127,0.2375,0.2511,0.2442,0.1957,0.1446,0.0665,0.0186,0.0016,-0.0092,-0.0242,-0.0289,0.025,0.0178,0.0112,0.0112,0.0112,0.0113,0.0113,0.0113,0.0748,0.0935,0.0988,0.1344,0.1491,0.1753,0.1902,0.2067,0.2249,0.2446,0.2535,0.2625,0.2213,0.0806,-0.02,-0.0408,-0.0765,-0.0786,-0.0958,-0.0669,-0.0633,-0.0599,-0.0705,-0.0954,-0.0955,-0.1435,-0.1441,-0.1445]}],[{"header":{"parameterUnit":"m.s-1","parameterCategory":2,"la1":30.2991,"la2":30.254,"lo1":-89.0895,"lo2":-89.0444,"dy":0.0017,"dx":0.0017,"nx":28,"ny":28,"refTime":"2025-08-03T09:00:00:Z","depth":"2","parameterNumber":2,"parameterNumberName":"U-component_of_CURRENTS"},"data":[0,0,0,0,0,0,0,0,0,0,0,0,0,0,0,0,0,0,0,0,0,0,0,0,0,0,0,0,0,0,0,0,0,0,0,0,0,0,0,0,0,0,0,0,0,0,0,0,0,0,0,0,0,0,0,0,0,0,0.2333,0.2335,0,0.2472,0.2473,0.2475,0.2495,0.2494,0.2493,0.2492,0.2509,0.251,0.2511,0,0,0,0,0,0,0,0,0,0,0,0,0,0.2121,0.2125,0.2333,0.2335,0.2337,0.2472,0.2473,0.2475,0.2495,0.2494,0.2493,0.2491,0.2508,0.251,0.2512,0,0,0,0,0,0,0,0,0,0,0,0,0,0.2229,0.2126,0.2333,0.2366,0.237,0.2471,0.2473,0.2475,0.2495,0.2494,0.2492,0.2491,0.2508,0.251,0.2512,0.2554,0,0,0.2518,0.2519,0,0,0,0,0,0,0,0,0.2223,0.2236,0.2359,0.2363,0.2369,0.2467,0.2405,0.2497,0.2496,0.2444,0.2492,0.249,0.2487,0.2491,0.2517,0.2555,0.2555,0.2518,0.2519,0.252,0.2521,0,0,0,0,0,0,0,0.2215,0.2231,0.2385,0.2361,0.2367,0.2386,0.2399,0.2423,0.2467,0.2449,0.2451,0.2472,0.2488,0.2515,0.2517,0.2556,0.2518,0.252,0.2521,0.2522,0.2581,0.2581,0,0,0,0,0,0,0.2205,0.2224,0.238,0.2389,0.2294,0.2391,0.2406,0.2435,0.247,0.2476,0.2473,0.2473,0.2512,0.2515,0.2518,0.249,0.252,0.2522,0.2523,0.258,0.2581,0.2581,0,0,0,0,0,0,0.22,0.2218,0.2375,0.2311,0.2333,0.2397,0.2429,0.2438,0.2467,0.2491,0.2493,0.2493,0.2511,0.2515,0.2531,0.2493,0.2523,0.2525,0.258,0.2581,0.2581,0.2485,0,0,0,0,0,0,0.2194,0.2216,0.2236,0.2311,0.2336,0.244,0.2431,0.2442,0.2484,0.2484,0.2508,0.2509,0.251,0.2528,0.2533,0.2497,0.2527,0.258,0.258,0.2581,0.2488,0.2482,0.2477,0,0,0,0,0,0.2186,0.2239,0.2237,0.2256,0.2362,0.2442,0.2457,0.2494,0.2486,0.2511,0.2511,0.2508,0.2535,0.253,0.2536,0.2499,0.2579,0.258,0.2581,0.249,0.2483,0.2477,0,0,0,0,0,0,0.2167,0.2248,0.2247,0.2322,0.2371,0.2446,0.2482,0.25,0.2526,0.2514,0.2521,0.2523,0.2523,0.2542,0.2537,0.2524,0.2554,0.2556,0.2483,0.2477,0.2472,0.2526,0.2528,0,0,0,0,0,0.2169,0.222,0.2288,0.2342,0.2367,0.2418,0.2455,0.2477,0.2512,0.2523,0.2525,0.253,0.2536,0.2529,0.2549,0.2547,0.2645,0.2529,0.2523,0.2518,0.257,0.2718,0.2732,0.2584,0.2584,0.2584,0,0,0.2175,0.2227,0.2255,0.234,0.2377,0.2403,0.2437,0.2495,0.2493,0.2519,0.2508,0.2522,0.2539,0.2527,0.2527,0.253,0.2599,0.2519,0.2514,0.2571,0.2721,0.2735,0.2749,0.2584,0.2584,0.2584,0,0,0.2203,0.2256,0.2292,0.2329,0.2388,0.2414,0.2427,0.2484,0.2488,0.2494,0.2499,0.2511,0.2506,0.2514,0.2515,0.2508,0.258,0.2487,0.2484,0.2624,0.2638,0.2652,0.2739,0.2762,0.2467,0.2467,0.2467,0,0.2196,0.2247,0.2315,0.2344,0.2363,0.2409,0.2422,0.2443,0.2485,0.2509,0.2476,0.2526,0.2507,0.2533,0.2498,0.2494,0.2583,0.249,0.2619,0.2635,0.2652,0.2739,0.2765,0.2462,0.2463,0.2463,0.2464,0,0.2232,0.2261,0.2289,0.2318,0.2354,0.2384,0.241,0.2432,0.2426,0.2458,0.2496,0.2493,0.2543,0.2496,0.2476,0.2559,0.2585,0.2604,0.2633,0.2661,0.2749,0.2779,0.2456,0.2457,0.2459,0.246,0,0,0.2215,0.2294,0.229,0.2301,0.2337,0.2378,0.2376,0.2425,0.2478,0.2472,0.2547,0.25,0.2552,0.2563,0.2549,0.2619,0.2736,0.2642,0.2651,0.2726,0.3032,0.2777,0.2785,0.2786,0.2792,0.2797,0.3026,0,0.2197,0.2239,0.2276,0.2289,0.2308,0.2348,0.2363,0.2417,0.2461,0.2549,0.2571,0.2635,0.256,0.2589,0.2649,0.2753,0.2821,0.2672,0.3,0.301,0.2779,0.2813,0.2598,0.2762,0.3056,0.3061,0.3064,0,0.2178,0.2219,0.2229,0.2296,0.231,0.2319,0.2401,0.2433,0.2564,0.2617,0.2706,0.2761,0.2848,0.2789,0.2993,0.291,0.2972,0.3026,0.3038,0.2874,0.2811,0.2796,0.2806,0.3115,0.3111,0.3107,0.3104,0,0.2117,0.2173,0.218,0.2194,0.2277,0.2295,0.234,0.2455,0.2546,0.2697,0.2809,0.2923,0.3024,0.3132,0.3186,0.3135,0.3429,0.3385,0.3216,0.3199,0.312,0.3082,0.3563,0.3563,0.3562,0.3562,0.3561,0,0.2066,0.2077,0.2159,0.2167,0.223,0.228,0.2383,0.2462,0.2631,0.2783,0.2859,0.2997,0.313,0.3277,0.3299,0.3336,0.3533,0.3247,0.3255,0.3064,0.3022,0.3423,0.3404,0.357,0.3568,0.3567,0.3565,0,0.1998,0.2031,0.2079,0.2167,0.2201,0.2254,0.2423,0.2539,0.2671,0.2881,0.2942,0.3144,0.3273,0.3356,0.3553,0.3474,0.3535,0.3498,0.3213,0.3177,0.3186,0.3159,0.3355,0.3348,0.3342,0.3337,0.3333,0,0.1985,0.1988,0.209,0.2161,0.2201,0.2302,0.2403,0.2544,0.2686,0.2952,0.3068,0.3238,0.3273,0.3411,0.336,0.3348,0.3445,0.3124,0.294,0.3183,0.3174,0.3156,0.3137,0.2815,0.2807,0.28,0.2795,0,0.2003,0.2019,0.2087,0.2193,0.2289,0.2405,0.2545,0.2645,0.2833,0.2971,0.316,0.3183,0.3234,0.3083,0.2998,0.2958,0.3083,0.2976,0.3441,0.2823,0.2672,0.266,0.2663,0.2737,0.2743,0.2747,0.275,0.2753,0.206,0.2099,0.2176,0.2269,0.2384,0.2473,0.2524,0.2671,0.2803,0.2886,0.3024,0.293,0.2923,0.2602,0.254,0.2501,0.2662,0.2565,0.2589,0.262,0.2439,0.2277,0.2236,0.2239,0.2241,0.2243,0.2245,0,0.2123,0.2158,0.2265,0.2354,0.2433,0.2483,0.2613,0.2607,0.267,0.2674,0.267,0.2358,0.2178,0.2186,0.2027,0.1966,0.2002,0.1891,0.1969,0.2025,0.2076,0.1871,0.1517,0.1515,0.1513,0.1511,0,0,0.2173,0.2237,0.225,0.236,0.2423,0.245,0.2475,0.2445,0.2418,0.2212,0.2078,0.2035,0.211,0.18,0.1743,0.1626,0.1817,0.1553,0.214,0.2291,0.234,0.2465,0.2209,0,0,0,0,0]},{"header":{"parameterUnit":"m.s-1","parameterCategory":2,"la1":30.2991,"la2":30.254,"lo1":-89.0895,"lo2":-89.0444,"dy":0.0017,"dx":0.0017,"nx":28,"ny":28,"refTime":"2025-08-03T09:00:00:Z","depth":"2","parameterNumber":3,"parameterNumberName":"V-component_of_CURRENTS"},"data":[0,0,0,0,0,0,0,0,0,0,0,0,0,0,0,0,0,0,0,0,0,0,0,0,0,0,0,0,0,0,0,0,0,0,0,0,0,0,0,0,0,0,0,0,0,0,0,0,0,0,0,0,0,0,0,0,0,0,-0.0273,-0.0273,0,-0.0225,-0.0225,-0.0224,-0.0256,-0.0258,-0.0259,-0.026,-0.029,-0.0289,-0.0289,0,0,0,0,0,0,0,0,0,0,0,0,0,-0.0346,-0.0345,-0.0273,-0.0273,-0.0272,-0.0226,-0.0225,-0.0224,-0.0256,-0.0258,-0.0259,-0.0261,-0.029,-0.0289,-0.0289,0,0,0,0,0,0,0,0,0,0,0,0,0,-0.0308,-0.0344,-0.0273,-0.0282,-0.0283,-0.0226,-0.0225,-0.0224,-0.0256,-0.0258,-0.026,-0.0262,-0.029,-0.0289,-0.0288,-0.0239,0,0,-0.0286,-0.0285,0,0,0,0,0,0,0,0,-0.031,-0.0305,-0.0282,-0.0282,-0.0282,-0.0249,-0.0261,-0.0233,-0.0255,-0.0266,-0.0261,-0.0263,-0.0282,-0.0281,-0.0267,-0.0241,-0.0242,-0.0286,-0.0285,-0.0285,-0.0285,0,0,0,0,0,0,0,-0.0313,-0.0307,-0.0254,-0.0281,-0.0281,-0.0273,-0.027,-0.0255,-0.0264,-0.0265,-0.0267,-0.0261,-0.0283,-0.0267,-0.0268,-0.0243,-0.0286,-0.0285,-0.0284,-0.0284,-0.021,-0.0209,0,0,0,0,0,0,-0.0318,-0.031,-0.0256,-0.0253,-0.0302,-0.027,-0.0267,-0.0257,-0.0262,-0.0264,-0.0259,-0.0263,-0.0268,-0.0269,-0.0269,-0.0235,-0.0285,-0.0284,-0.0284,-0.0211,-0.021,-0.0208,0,0,0,0,0,0,-0.032,-0.0314,-0.0258,-0.0281,-0.0273,-0.0267,-0.0255,-0.0255,-0.0249,-0.0257,-0.0261,-0.0255,-0.0269,-0.027,-0.0245,-0.0236,-0.0284,-0.0283,-0.0213,-0.0211,-0.0209,-0.0153,0,0,0,0,0,0,-0.0322,-0.0314,-0.0308,-0.0281,-0.0272,-0.0213,-0.0253,-0.0253,-0.0242,-0.0246,-0.0254,-0.0258,-0.0271,-0.0246,-0.0245,-0.0236,-0.0282,-0.0215,-0.0212,-0.021,-0.0156,-0.0149,-0.0142,0,0,0,0,0,-0.0325,-0.0283,-0.0307,-0.0301,-0.0263,-0.0211,-0.0205,-0.0209,-0.0239,-0.0216,-0.0225,-0.0259,-0.0229,-0.0243,-0.0242,-0.0233,-0.0216,-0.0213,-0.021,-0.0159,-0.015,-0.0143,0,0,0,0,0,0,-0.0292,-0.0281,-0.0308,-0.0263,-0.0245,-0.0217,-0.019,-0.0204,-0.019,-0.0203,-0.0226,-0.0228,-0.0206,-0.0218,-0.0233,-0.0203,-0.0233,-0.023,-0.0196,-0.0187,-0.018,-0.0187,-0.0281,0,0,0,0,0,-0.0288,-0.0268,-0.0256,-0.0221,-0.0212,-0.0209,-0.0191,-0.0196,-0.0181,-0.0178,-0.0185,-0.0193,-0.0186,-0.0186,-0.0177,-0.015,-0.0185,-0.0147,-0.014,-0.0134,-0.0137,-0.0164,-0.016,-0.0197,-0.0197,-0.0197,0,0,-0.0265,-0.0257,-0.0246,-0.0216,-0.0205,-0.0169,-0.0202,-0.0166,-0.0146,-0.0182,-0.0153,-0.0162,-0.0171,-0.0143,-0.0137,-0.0156,-0.0141,-0.013,-0.0125,-0.0132,-0.016,-0.0157,-0.0154,-0.0195,-0.0196,-0.0196,0,0,-0.0197,-0.0205,-0.0169,-0.0154,-0.0137,-0.013,-0.0123,-0.0102,-0.0105,-0.0073,-0.0101,-0.0102,-0.0083,-0.0092,-0.0095,-0.0041,-0.0099,-0.0044,-0.0019,-0.0044,-0.0041,-0.004,-0.0084,-0.0087,-0.0046,-0.0046,-0.0046,0,-0.0173,-0.0139,-0.0145,-0.0108,-0.0094,-0.0114,-0.0074,-0.0061,-0.0038,-0.0034,-0.0058,-0.0046,-0.0061,-0.0041,-0.0031,-0.0028,-0.0059,-0.0052,-0.0037,-0.0036,-0.0035,-0.0081,-0.0085,-0.0043,-0.0043,-0.0043,-0.0044,0,-0.0084,-0.0068,-0.0036,-0.0016,0.0007,0.0044,0.0046,0.0063,0.0044,0.0044,0.0057,0.0039,0.0039,0.0031,0.0013,0.0015,-0.0014,-0.0022,-0.0063,-0.0029,-0.0078,-0.0083,-0.0038,-0.0039,-0.004,-0.0041,0,0,-0.0007,0.0016,0.0022,0.0029,0.0048,0.0081,0.0113,0.0139,0.0163,0.0149,0.017,0.0155,0.0123,0.0117,0.0088,0.0055,0.0024,0.0015,0.0013,-0.0037,-0.0048,-0.009,-0.0101,0.0015,0.0015,0.0015,-0.0087,0,0.0055,0.012,0.0118,0.0174,0.0201,0.0185,0.0226,0.024,0.0241,0.0264,0.0212,0.0231,0.0164,0.0163,0.0118,0.0068,0.0014,0.0052,-0.0066,-0.007,-0.0119,-0.0106,-0.0084,-0.0174,-0.0092,-0.0093,-0.0094,0,0.0127,0.0158,0.0215,0.0242,0.0256,0.029,0.0327,0.0363,0.0379,0.0383,0.0364,0.0329,0.0289,0.0226,0.0114,0.0141,0.0041,-0.0021,-0.0026,-0.0091,-0.0122,-0.0193,-0.0187,-0.0103,-0.0103,-0.0102,-0.0101,0,0.016,0.0217,0.0254,0.0266,0.0311,0.0332,0.0361,0.0394,0.0444,0.0456,0.0487,0.0421,0.0409,0.0281,0.0141,0.0127,0.0008,-0.0022,-0.0165,-0.017,-0.0187,-0.0193,-0.0127,-0.0127,-0.0127,-0.0127,-0.0126,0,0.0207,0.0235,0.0272,0.0294,0.0362,0.0374,0.0452,0.0477,0.0537,0.0603,0.0546,0.0572,0.0422,0.0335,0.0175,-0.0003,0.003,-0.0167,-0.0196,-0.0167,-0.0169,-0.0133,-0.0132,-0.0131,-0.013,-0.0129,-0.0128,0,0.0213,0.0238,0.0288,0.0346,0.0373,0.0417,0.0519,0.0589,0.0633,0.0714,0.0722,0.0698,0.0575,0.0403,0.0213,0.0061,-0.0113,-0.0194,-0.016,-0.0184,-0.0293,-0.0288,-0.0372,-0.0374,-0.0376,-0.0378,-0.0379,0,0.0207,0.0234,0.0322,0.0375,0.0398,0.0478,0.0553,0.063,0.0711,0.0784,0.0828,0.075,0.0688,0.0404,0.0143,-0.014,-0.0161,-0.0306,-0.0338,-0.0297,-0.0317,-0.0309,-0.0301,-0.0344,-0.0345,-0.0346,-0.0346,0,0.02,0.0234,0.0287,0.0396,0.0476,0.0589,0.069,0.0772,0.0862,0.0946,0.1011,0.0963,0.0682,0.0419,0.0044,-0.0146,-0.0257,-0.0334,-0.0282,-0.0283,-0.0278,-0.0295,-0.0287,-0.0353,-0.0352,-0.0352,-0.0352,-0.0351,0.0189,0.0224,0.0306,0.0413,0.053,0.0674,0.0784,0.0904,0.1046,0.1153,0.1097,0.1043,0.0731,0.0247,-0.0041,-0.0325,-0.0345,-0.0452,-0.0447,-0.0441,-0.0417,-0.0415,-0.0513,-0.0513,-0.0513,-0.0514,-0.0514,0,0.0167,0.0226,0.0323,0.0465,0.0613,0.0688,0.0872,0.0997,0.1174,0.1211,0.1247,0.0932,0.0616,0.0288,-0.0148,-0.0435,-0.0429,-0.0507,-0.0435,-0.0429,-0.0423,-0.0394,-0.0487,-0.0487,-0.0487,-0.0487,0,0,0.0149,0.0224,0.0284,0.05,0.0642,0.0861,0.0991,0.1161,0.1245,0.1288,0.125,0.1107,0.069,0.0385,0.0004,-0.0226,-0.025,-0.0268,-0.0271,-0.0136,-0.0125,-0.0386,-0.0335,0,0,0,0,0]}],[{"header":{"parameterUnit":"m.s-1","parameterCategory":2,"la1":30.2991,"la2":30.254,"lo1":-89.0895,"lo2":-89.0444,"dy":0.0017,"dx":0.0017,"nx":28,"ny":28,"refTime":"2025-08-03T09:00:00:Z","depth":"4","parameterNumber":2,"parameterNumberName":"U-component_of_CURRENTS"},"data":[0,0,0,0,0,0,0,0,0,0,0,0,0,0,0,0,0,0,0,0,0,0,0,0,0,0,0,0,0,0,0,0,0,0,0,0,0,0,0,0,0,0,0,0,0,0,0,0,0,0,0,0,0,0,0,0,0,0,0.0896,0.0896,0,0.091,0.091,0.0909,0.094,0.094,0.0941,0.0942,0.1012,0.1013,0.1014,0,0,0,0,0,0,0,0,0,0,0,0,0,0.0832,0.0833,0.0896,0.0896,0.0897,0.091,0.091,0.0909,0.0939,0.0941,0.0942,0.0943,0.1012,0.1013,0.1014,0,0,0,0,0,0,0,0,0,0,0,0,0,0.0851,0.0834,0.0896,0.0916,0.0919,0.091,0.091,0.0909,0.0939,0.0941,0.0942,0.0943,0.1012,0.1013,0.1014,0.0994,0,0,0.1019,0.1019,0,0,0,0,0,0,0,0,0.085,0.0853,0.0913,0.0915,0.0917,0.0928,0.0913,0.0942,0.0939,0.0927,0.0942,0.0944,0.0991,0.0994,0.0987,0.0998,0.1001,0.1019,0.102,0.102,0.1021,0,0,0,0,0,0,0,0.0849,0.0852,0.0897,0.0913,0.0916,0.0903,0.0908,0.0918,0.0949,0.0928,0.0932,0.0939,0.0992,0.0985,0.0989,0.1002,0.1019,0.102,0.1021,0.1022,0.1191,0.1194,0,0,0,0,0,0,0.0857,0.0851,0.0897,0.0898,0.0891,0.0904,0.0909,0.092,0.0947,0.0954,0.0937,0.094,0.0982,0.0987,0.0992,0.1088,0.102,0.1022,0.1023,0.1187,0.1192,0.1196,0,0,0,0,0,0,0.0855,0.0861,0.0897,0.0878,0.0882,0.0904,0.0916,0.0919,0.0954,0.0955,0.0961,0.0974,0.0984,0.099,0.108,0.1086,0.1022,0.1024,0.1183,0.1189,0.1194,0.1204,0,0,0,0,0,0,0.0853,0.086,0.0883,0.0879,0.0884,0.092,0.0915,0.0919,0.0955,0.096,0.0987,0.0992,0.0985,0.1078,0.1081,0.1087,0.1025,0.1178,0.1186,0.1192,0.1199,0.1209,0.1218,0,0,0,0,0,0.0851,0.0879,0.0884,0.0891,0.0911,0.0921,0.0923,0.0939,0.0956,0.0975,0.1032,0.0994,0.1123,0.1083,0.1085,0.1092,0.1175,0.1184,0.1191,0.1195,0.1207,0.1218,0,0,0,0,0,0,0.0857,0.0884,0.089,0.0924,0.0934,0.0929,0.0949,0.0962,0.1014,0.1038,0.1042,0.1053,0.1115,0.1134,0.1089,0.1172,0.1141,0.115,0.1143,0.1154,0.1163,0.1145,0.1026,0,0,0,0,0,0.0869,0.0899,0.0912,0.0936,0.0948,0.0955,0.0968,0.0983,0.1019,0.1043,0.1044,0.109,0.1141,0.1179,0.1195,0.1256,0.1248,0.1269,0.1278,0.1285,0.128,0.128,0.1287,0.1223,0.1222,0.1222,0,0,0.0858,0.0894,0.0899,0.094,0.0947,0.0969,0.0967,0.1,0.1029,0.1043,0.1079,0.1103,0.1165,0.1219,0.125,0.1245,0.1311,0.1295,0.13,0.1291,0.1289,0.1294,0.1299,0.1228,0.1227,0.1226,0,0,0.0866,0.0903,0.093,0.0953,0.0996,0.1003,0.1025,0.1029,0.1052,0.1119,0.1124,0.1179,0.1244,0.1266,0.1305,0.1392,0.1342,0.1397,0.1439,0.144,0.1443,0.1446,0.1471,0.1475,0.1421,0.1421,0.1421,0,0.0869,0.0906,0.0936,0.0977,0.1,0.1026,0.1054,0.108,0.1108,0.112,0.1153,0.124,0.127,0.1349,0.1383,0.1401,0.1402,0.1379,0.1444,0.1447,0.1449,0.1474,0.1478,0.1423,0.1422,0.1422,0.1422,0,0.089,0.093,0.095,0.1012,0.1038,0.1071,0.1108,0.1126,0.1169,0.1179,0.1251,0.1313,0.1375,0.1387,0.1424,0.1455,0.1451,0.1429,0.1393,0.1454,0.1479,0.1484,0.1425,0.1424,0.1424,0.1423,0,0,0.0881,0.0952,0.0967,0.0991,0.1068,0.1084,0.1139,0.1176,0.1218,0.126,0.131,0.1401,0.1415,0.1463,0.1488,0.1497,0.1525,0.1479,0.1478,0.1466,0.154,0.1444,0.144,0.1497,0.1497,0.1498,0.1558,0,0.0896,0.0963,0.1006,0.1054,0.1077,0.1124,0.1174,0.1215,0.1269,0.1311,0.138,0.145,0.1458,0.1515,0.1523,0.1518,0.1534,0.1511,0.1517,0.1518,0.1391,0.144,0.1499,0.1562,0.1562,0.1563,0.1564,0,0.0906,0.0956,0.101,0.1072,0.1091,0.1132,0.1208,0.1264,0.1332,0.1384,0.1455,0.1496,0.1561,0.1557,0.1589,0.1573,0.1564,0.155,0.1552,0.1452,0.1428,0.1489,0.1571,0.1571,0.157,0.157,0.1569,0,0.0872,0.0952,0.0998,0.1023,0.1107,0.1142,0.1196,0.1271,0.1323,0.1431,0.1485,0.1557,0.1633,0.162,0.1623,0.1612,0.162,0.1608,0.1515,0.151,0.1568,0.1564,0.1605,0.1605,0.1605,0.1605,0.1605,0,0.0866,0.0895,0.0986,0.1015,0.1077,0.1141,0.1226,0.1285,0.1381,0.1441,0.1531,0.1595,0.1644,0.1657,0.1635,0.1593,0.1646,0.1522,0.151,0.1582,0.1579,0.1573,0.1568,0.1607,0.1607,0.1606,0.1606,0,0.0805,0.0868,0.0917,0.1022,0.1063,0.1106,0.1232,0.1275,0.1395,0.1481,0.1524,0.1629,0.1671,0.1681,0.1678,0.1619,0.1577,0.1538,0.1637,0.163,0.1474,0.147,0.1468,0.1465,0.1463,0.146,0.1459,0,0.0768,0.0795,0.0924,0.0955,0.1006,0.1094,0.1149,0.1272,0.132,0.1486,0.1504,0.1598,0.1653,0.1592,0.1606,0.1569,0.1531,0.1513,0.1471,0.1466,0.1456,0.1456,0.1456,0.1454,0.1454,0.1453,0.1452,0,0.0694,0.0759,0.0818,0.0901,0.0956,0.103,0.1118,0.115,0.1296,0.14,0.1467,0.1495,0.1537,0.1543,0.1516,0.1478,0.1527,0.1485,0.149,0.1451,0.1449,0.1442,0.1445,0.1443,0.1445,0.1445,0.1446,0,0.0642,0.066,0.0754,0.082,0.0893,0.0945,0.101,0.1077,0.1153,0.1326,0.1342,0.1442,0.1534,0.1495,0.1464,0.1427,0.141,0.1352,0.1364,0.1374,0.1306,0.1288,0.1222,0,0,0,0,0,0.0576,0.0594,0.0655,0.0725,0.0801,0.0853,0.0974,0.104,0.1179,0.119,0.1269,0.1306,0.1323,0.1367,0.1307,0.1401,0.1394,0.1323,0.1329,0.1393,0.1403,0.1327,0,0,0,0,0,0,0.052,0.0565,0.0623,0.0648,0.0679,0.0748,0.0828,0.092,0.0948,0.1093,0.1108,0.1208,0.1234,0.1328,0.1273,0.128,0.1254,0.1377,0.1373,0.1387,0.1396,0.1405,0.133,0,0,0,0,0]},{"header":{"parameterUnit":"m.s-1","parameterCategory":2,"la1":30.2991,"la2":30.254,"lo1":-89.0895,"lo2":-89.0444,"dy":0.0017,"dx":0.0017,"nx":28,"ny":28,"refTime":"2025-08-03T09:00:00:Z","depth":"4","parameterNumber":3,"parameterNumberName":"V-component_of_CURRENTS"},"data":[0,0,0,0,0,0,0,0,0,0,0,0,0,0,0,0,0,0,0,0,0,0,0,0,0,0,0,0,0,0,0,0,0,0,0,0,0,0,0,0,0,0,0,0,0,0,0,0,0,0,0,0,0,0,0,0,0,0,0.022,0.022,0,0.0224,0.0224,0.0224,0.0222,0.0222,0.0222,0.0223,0.0156,0.0154,0.0152,0,0,0,0,0,0,0,0,0,0,0,0,0,0.0154,0.0155,0.022,0.022,0.0221,0.0224,0.0224,0.0224,0.0222,0.0222,0.0222,0.0223,0.0156,0.0154,0.0152,0,0,0,0,0,0,0,0,0,0,0,0,0,0.017,0.0156,0.022,0.0223,0.0223,0.0224,0.0224,0.0223,0.0222,0.0222,0.0223,0.0223,0.0157,0.0154,0.0151,0.0126,0,0,0.0142,0.0141,0,0,0,0,0,0,0,0,0.0169,0.0172,0.0222,0.0223,0.0223,0.0226,0.0176,0.0189,0.0222,0.0219,0.0223,0.0223,0.0174,0.017,0.0166,0.0123,0.012,0.0142,0.014,0.0139,0.0138,0,0,0,0,0,0,0,0.0168,0.0171,0.0218,0.0223,0.0223,0.0205,0.0207,0.0178,0.0191,0.0219,0.022,0.0226,0.0174,0.0169,0.0165,0.0119,0.0142,0.0139,0.0137,0.0136,0.0005,0.0003,0,0,0,0,0,0,0.0177,0.0171,0.0218,0.0219,0.02,0.0206,0.0209,0.0222,0.0193,0.019,0.0225,0.0226,0.0174,0.0168,0.0162,0.0113,0.0139,0.0136,0.0134,0.0007,0.0005,0.0003,0,0,0,0,0,0,0.0176,0.0182,0.0218,0.0197,0.0201,0.0208,0.0222,0.0222,0.0224,0.0199,0.0194,0.0228,0.0174,0.0166,0.0129,0.0111,0.0135,0.0132,0.0009,0.0006,0.0004,0.0025,0,0,0,0,0,0,0.0174,0.0181,0.019,0.0198,0.0202,0.0224,0.0222,0.0222,0.0228,0.0228,0.0199,0.0194,0.0174,0.0134,0.0126,0.0107,0.013,0.0011,0.0008,0.0005,0.0026,0.0023,0.0021,0,0,0,0,0,0.0172,0.0192,0.019,0.0196,0.0216,0.0224,0.0224,0.0227,0.0228,0.0229,0.02,0.0195,0.0108,0.013,0.0122,0.0101,0.0012,0.0008,0.0005,0.0027,0.0024,0.0021,0,0,0,0,0,0,0.0173,0.0194,0.0193,0.0219,0.0221,0.0225,0.0229,0.023,0.021,0.0206,0.0181,0.0172,0.0129,0.0107,0.0133,0.0049,0.0055,0.005,0.0075,0.0072,0.0069,0.0073,0.0127,0,0,0,0,0,0.0176,0.0194,0.0204,0.0223,0.0224,0.0224,0.0228,0.0229,0.0217,0.0211,0.0191,0.0152,0.0105,0.0085,0.0047,0.0009,-0.001,-0.0015,-0.0018,-0.002,-0.0026,-0.0068,-0.0074,-0.001,-0.001,-0.001,0,0,0.0187,0.0197,0.0209,0.0223,0.0223,0.0221,0.0227,0.0235,0.0226,0.0203,0.0181,0.0146,0.0091,0.0045,0.0023,0.0028,-0.005,-0.0025,-0.0026,-0.0031,-0.0072,-0.0078,-0.0083,-0.0012,-0.0012,-0.0011,0,0,0.0203,0.0218,0.0229,0.0227,0.023,0.0227,0.0231,0.0232,0.0225,0.02,0.0168,0.0124,0.0073,0.0026,-0.0007,-0.0051,-0.0062,-0.0066,-0.0073,-0.0113,-0.0118,-0.0123,-0.0149,-0.0156,-0.0066,-0.0066,-0.0066,0,0.0207,0.0226,0.0233,0.0231,0.0229,0.0229,0.0228,0.0217,0.0206,0.0188,0.0193,0.0094,0.0058,-0.002,-0.0038,-0.0055,-0.0073,-0.0048,-0.0114,-0.0119,-0.0124,-0.015,-0.0158,-0.0066,-0.0066,-0.0066,-0.0066,0,0.0224,0.0232,0.0237,0.0232,0.0229,0.0232,0.0218,0.0209,0.02,0.0182,0.0123,0.0073,0.0014,-0.0012,-0.0039,-0.0105,-0.0104,-0.0107,-0.0095,-0.0128,-0.0154,-0.0163,-0.0065,-0.0065,-0.0065,-0.0066,0,0,0.0248,0.0248,0.0249,0.0244,0.0229,0.0233,0.0207,0.0184,0.017,0.0138,0.0104,0.0017,-0.0,-0.0041,-0.008,-0.0121,-0.0169,-0.0127,-0.0129,-0.0135,-0.0248,-0.0233,-0.024,-0.0177,-0.0178,-0.018,-0.0248,0,0.0253,0.0256,0.0252,0.0247,0.0245,0.0227,0.0208,0.0181,0.0157,0.0125,0.0057,0.0014,-0.0015,-0.0037,-0.0089,-0.0153,-0.0193,-0.015,-0.0232,-0.0234,-0.0201,-0.0251,-0.0185,-0.0255,-0.0257,-0.0258,-0.0259,0,0.0261,0.0264,0.0264,0.0254,0.0252,0.0248,0.0219,0.0204,0.0146,0.0127,0.0066,0.0024,-0.0062,-0.0064,-0.0188,-0.0156,-0.0203,-0.0245,-0.0249,-0.0249,-0.0236,-0.0221,-0.0275,-0.0274,-0.0273,-0.0272,-0.0271,0,0.0269,0.0268,0.0272,0.0268,0.0257,0.0252,0.0245,0.0203,0.0194,0.0132,0.0121,0.0015,-0.0021,-0.0112,-0.0202,-0.0194,-0.0322,-0.032,-0.0352,-0.0351,-0.0348,-0.0343,-0.04,-0.04,-0.04,-0.04,-0.0399,0,0.0268,0.0269,0.0282,0.0283,0.0295,0.0274,0.0276,0.0253,0.022,0.021,0.0131,0.0102,-0.0031,-0.0117,-0.0205,-0.0308,-0.0326,-0.0367,-0.0376,-0.0339,-0.0332,-0.0354,-0.0347,-0.0402,-0.0402,-0.0401,-0.0401,0,0.026,0.027,0.0278,0.0286,0.03,0.0304,0.032,0.0318,0.0288,0.0272,0.0258,0.0161,0.0046,-0.0087,-0.0234,-0.0295,-0.0402,-0.0428,-0.0377,-0.0379,-0.0402,-0.0395,-0.048,-0.048,-0.0481,-0.0481,-0.0481,0,0.0241,0.0251,0.029,0.0318,0.0327,0.0348,0.0368,0.0355,0.0359,0.0313,0.0307,0.0198,0.012,-0.0078,-0.022,-0.0399,-0.0413,-0.0458,-0.0444,-0.0415,-0.0415,-0.0407,-0.0399,-0.0481,-0.0481,-0.0481,-0.0481,0,0.0209,0.0237,0.0259,0.033,0.0368,0.0405,0.0433,0.0446,0.043,0.0404,0.0351,0.0238,0.0107,-0.0064,-0.0204,-0.0328,-0.0431,-0.046,-0.046,-0.0448,-0.0417,-0.0415,-0.0407,-0.0482,-0.0482,-0.0482,-0.0482,0,0.0194,0.0214,0.0273,0.0338,0.0391,0.0446,0.046,0.0472,0.0474,0.0427,0.0411,0.026,0.0168,-0.0027,-0.0157,-0.0286,-0.0312,-0.0331,-0.0338,-0.0339,-0.028,-0.022,-0.0243,0,0,0,0,0,0.0182,0.0231,0.028,0.0359,0.0414,0.045,0.0498,0.0507,0.0501,0.0476,0.0445,0.0323,0.012,0.0024,-0.0102,-0.0167,-0.034,-0.0317,-0.0366,-0.0486,-0.0485,-0.0438,0,0,0,0,0,0,0.0177,0.0237,0.0278,0.0366,0.042,0.0481,0.0512,0.0513,0.0499,0.0474,0.0363,0.0305,0.0098,0.0185,-0.0104,-0.0146,-0.0187,-0.042,-0.0422,-0.0486,-0.0485,-0.0485,-0.0437,0,0,0,0,0]}]]